Regional Weather Roundup
Issued by NWS

Home | Current Version | Previous Version | Graphics & Text | Print | Product List | Glossary On
Versions: 1 2 3 4 5 6 7 8 9 10 11 12 13 14 15 16 17 18 19 20 21 22 23 24 25 26 27 28 29 30 31 32 33 34 35 36 37 38 39 40 41 42 43 44 45 46 47 48 49 50
000
ASUS43 KMPX 251001
RWRMN
WEATHER ROUNDUP FOR MINNESOTA
NATIONAL WEATHER SERVICE TWIN CITIES/CHANHASSEN MN
500 AM CDT THU AUG 25 2016


NOTE: "FAIR" INDICATES FEW OR NO CLOUDS BELOW 12,000 FEET WITH NO
SIGNIFICANT WEATHER AND/OR OBSTRUCTIONS TO VISIBILITY. N/A MEANS
CURRENT SKY AND/OR WEATHER CONDITIONS ARE NOT AVAILABLE.

MNZ060>063-068>070-251100-
   Twin Cities Metro

CITY           SKY/WX    TMP DP  RH WIND       PRES   REMARKS
TWIN CITIES    CLEAR     63  58  83 S3        30.02S
ST PAUL        CLEAR     62  59  90 CALM      30.02S
CRYSTAL        CLEAR     63  56  78 SW6       30.00F
BLAINE         CLEAR     61  61 100 SW3       30.01S
LAKEVILLE      CLOUDY    59  59 100 CALM      30.04S
EDEN PRAIRIE   CLEAR     60  58  92 SW3       30.02S
LAKEVILLE      CLOUDY    59  59 100 CALM      30.04S
SOUTH ST PAUL  CLEAR     63  59  87 SW5       30.02S
LAKE ELMO      FAIR      57  55  94 CALM      30.03S
$$
MNZ001>005-007-008-013>017-022>024-027-028-251100-
   Northwest Minnesota

CITY           SKY/WX    TMP DP  RH WIND       PRES   REMARKS
BEMIDJI        CLEAR     54  50  87 SW9       29.93S
HALLOCK        CLOUDY    57  55  94 W10       29.86R
ROSEAU         CLOUDY    57  52  82 SW9       29.85S
WARROAD        CLOUDY    55  52  88 SW7       29.85S
THIEF RVR FALL MOCLDY    55  53  93 SW10      29.91S
CROOKSTON      CLOUDY    55  54  94 SW8       29.92S
FOSSTON        PTCLDY    50  48  93 S8        29.94S
DETROIT LAKES  CLEAR     55  52  88 W10G17    29.99S
MOORHEAD       CLEAR     54  52  94 W7        29.99R
PARK RAPIDS    CLEAR     52  49  89 SW7       29.97S
MAHNOMEN       FAIR      52  50  93 SW8       29.95S
$$
MNZ006-009>011-018-025>026-251100-
   North Central Minnesota

CITY           SKY/WX    TMP DP  RH WIND       PRES   REMARKS
BAUDETTE       CLEAR     52  50  93 SW7       29.85S
FLAG ISLAND    CLEAR     55  52  88 SW5       29.81F FOG
INTL FALLS     CLEAR     51  49  92 SW3       29.87S
WASKISH        CLEAR     61  55  82 SW10G17   29.88F
BIG FORK       CLEAR     52  50  93 SW3       29.91F
LONGVILLE      CLEAR     57  54  88 SW7       29.95S
GRAND RAPIDS   CLEAR     56  53  90 S5        29.96S
CRANE LAKE     CLEAR     54  52  94 S2        29.90F
ORR            CLEAR     54  48  82 CALM      29.88F
COOK           CLEAR     55  52  88 SW5       29.91F
WALKER         FAIR      54  51  90 SW9       29.95S
$$
MNZ012-019>021-037-251100-
   Northeast Minnesota

CITY           SKY/WX    TMP DP  RH WIND       PRES   REMARKS
DULUTH         CLEAR     56  54  93 W9        29.95S
ELY            CLEAR     55  52  88 SW5       29.91S
HIBBING        CLEAR     48  48 100 CALM      29.93S FOG
EVELETH        CLEAR     52  51  95 CALM      29.94F
DULUTH HARBOR  CLEAR     59  55  88 SW10      29.94F
TWO HARBORS    CLEAR     61  55  82 CALM      29.92S
SILVER BAY     CLEAR     54  52  94 CALM      29.91S
G MARAIS ARPRT CLEAR     55  48  76 W5        29.92S
$$
MNZ029>031-032-039>041-046>048-054>057-064-251100-
   West Central Minnesota

CITY           SKY/WX    TMP DP  RH WIND       PRES   REMARKS
FERGUS FALLS   CLEAR     54  52  94 W7        30.04R
WHEATON        CLEAR     57  52  82 W7        30.06R
MORRIS         CLEAR     54  52  94 W3        30.04R
ALEXANDRIA     CLEAR     58  52  80 W9        30.03S
ELBOW LAKE     FAIR      52  50  93 SW7       30.03S
WADENA         CLEAR     54  52  94 SW7       29.99R
GLENWOOD       CLEAR     55  54  94 W8        30.04R
APPLETON       CLEAR     55  52  88 W6        30.05R
BENSON         CLEAR     52  48  87 CALM      30.04R
ORTONVILLE     CLEAR     57  52  82 CALM      30.06R
MADISON        CLEAR     55  54  94 W7        30.06R
WILLMAR        FAIR      55  54  94 W6        30.05R
$$
MNZ033>034-036-042>043-049>051-058-059-251100-
   Central Minnesota

CITY           SKY/WX    TMP DP  RH WIND       PRES   REMARKS
ST CLOUD       CLEAR     55  55 100 CALM      30.00F
SAUK CENTRE    FAIR      54  53  97 W7        30.02S
PAYNESVILLE    CLEAR     51  51 100 W5        30.03S
AITKIN         CLEAR     61  52  72 SW5       29.96S
PINE RIVER     CLEAR     54  52  94 CALM      30.00S
BRAINERD       CLEAR     56  53  90 SW6       29.98S
STAPLES        CLEAR     54  50  87 SW5       29.99S
LONG PRAIRIE   FAIR      55  54  94 SW6       30.02S
LITTLE FALLS   CLEAR     54  52  94 CALM      30.00S
LITCHFIELD     CLEAR     61  57  88 SW3       30.03S
BUFFALO        CLEAR     60  57  89 CALM      30.02F
MAPLE LAKE     CLEAR     59  58  95 CALM      30.02F
HUTCHINSON     CLEAR     56  56 100 CALM      30.04S
$$
MNZ037-044-045-052-053-251100-
   East Central Minnesota

CITY           SKY/WX    TMP DP  RH WIND       PRES   REMARKS
PRINCETON      CLEAR     57  55  94 CALM      30.00F
MORA           CLEAR     55  54  94 CALM      30.01S
CAMBRIDGE      CLEAR     61  54  77 S3        29.99S
RUSH CITY      MOCLDY    59  56  91 SW3       30.00S
MOOSE LAKE       N/A     52  50  93 CALM      29.96S FOG
HINCKLEY       FAIR      54  54 100 CALM      29.99S
CLOQUET        CLEAR     57  52  82 SW6       29.96S
MCGREGOR       CLEAR     55  54  94 SW6       29.97F
$$
MNZ071>073-080-081-089-090-097-098-251100-
   Southwest Minnesota

CITY           SKY/WX    TMP DP  RH WIND       PRES   REMARKS
MONTEVIDEO     CLEAR     55  54  94 NW6       30.07R
GRANITE FALLS  CLOUDY    57  55  94 W8        30.06R
CANBY          CLEAR     59  53  81 NW6       30.08R
MARSHALL       MOCLDY    58  54  86 W7        30.07R
REDWOOD FALLS  MOCLDY    60  54  80 SW8       30.04R
OLIVIA         PTCLDY    54  52  94 SW3       30.04R
PIPESTONE      PTCLDY    55  54  94 W3        30.09S
WINDOM         PTCLDY    57  55  94 SW3       30.08R
WORTHINGTON    PTCLDY    58  56  93 W8        30.09S
JACKSON        PTCLDY    59  54  82 W3        30.09R
TRACY          CLOUDY    61  55  82 W7        30.07R
SLAYTON        CLOUDY    61  54  77 W9        30.09S
$$
MNZ065>067-074>077-082>085-091>093-251100-
   South Central Minnesota

CITY           SKY/WX    TMP DP  RH WIND       PRES   REMARKS
MANKATO        PTCLDY    61  55  82 W5        30.05S
NEW ULM          N/A     55  55 100 SW5       30.05S
ST JAMES       MOCLDY    54  52  94 SW3       30.07S
FAIRMONT       CLOUDY    60  56  86 CALM      30.07S
GLENCOE        CLEAR     60  59  97 CALM      30.03S
FARIBAULT      CLOUDY    61  59  94 SW5       30.05S
OWATONNA       CLOUDY    61  57  88 CALM      30.05S
WASECA         CLOUDY    55  55 100 S3        30.07S
ALBERT LEA     CLOUDY    63  61  94 CALM      30.07R
$$
MNZ078>079-086>088-094>096-251100-
   Southeast Minnesota

CITY           SKY/WX    TMP DP  RH WIND       PRES   REMARKS
ROCHESTER      CLOUDY    61  60  97 W7        30.05S
RED WING       CLOUDY    61  61 100 CALM      30.02R
STANTON        CLOUDY    61  57  88 CALM      30.03R
DODGE CENTER   CLOUDY    61  61 100 W5        30.05S
WINONA         CLOUDY    61  59  94 CALM      30.02S
AUSTIN         CLOUDY    63  59  88 CALM      30.06S
PRESTON        CLOUDY    61  58  89 NW5       30.05S
$$
ABBREVIATIONS USED IN REMARKS
   TC - TEMPERATURES IN CELSIUS
  WCI - WIND CHILL INDEX
   HX - HEAT INDEX
  VSB - VISIBILITY
$$



USA.gov is the U.S. government's official web portal to all federal, state and local government web resources and services.